Regional Weather Roundup
Issued by NWS Grand Forks, ND

Home | Current Version | Previous Version | Text Only | Print | Product List | Glossary On
Versions: 1 2 3 4 5 6 7 8 9 10 11 12 13 14 15 16 17 18 19 20 21 22 23 24 25 26 27 28 29 30 31 32 33 34 35 36 37 38 39 40 41 42 43 44 45 46 47 48 49 50
000
ASUS43 KFGF 231510
RWRFGF
PRAIRIE TO PINES  WEATHER ROUNDUP
NATIONAL WEATHER SERVICE EASTERN NORTH DAKOTA/GRAND FORKS ND
900 AM CST THU FEB 23 2017

 **SATELLITE DATA USED TO AUGMENT SKY COVER AT AUTOMATED STATIONS**
 *****  WEATHER ACROSS EASTERN NORTH DAKOTA  *****

CITY           SKY/WX    TMP DP  RH WIND       PRES   REMARKS
GRAND FORKS    CLOUDY    29  21  72 N13       30.05S WCI  19
GRAND FRKS AFB CLOUDY    28  24  84 NE15      30.05S WCI  16
DEVILS LAKE    CLOUDY    26  23  88 N6        30.03R WCI  19
FARGO          CLOUDY    30  22  72 N15       30.02F WCI  19
WAHPETON ARPT  FAIR      30  23  74 N14G21    30.01R WCI  20
$$

 ***** WEATHER ACROSS CENTRAL AND WESTERN NORTH DAKOTA  *****

CITY           SKY/WX    TMP DP  RH WIND       PRES   REMARKS
BISMARCK       CLOUDY    29  25  85 CALM      30.03R
MINOT          CLOUDY    24  18  77 N18       30.05R WCI  10
JAMESTOWN      CLOUDY    29  25  85 NE8       30.01S WCI  21
MINOT AFB      CLOUDY    21  17  83 NE14      30.05R WCI   8
GARRISON         N/A     29  27  92 N9        29.99S WCI  20
WILLISTON      CLOUDY    28  24  85 NE14      30.04R WCI  17
DICKINSON      CLOUDY    26  24  92 N5        29.96R FOG     WCI  20
HETTINGER      CLOUDY    26  23  88 NE10      29.97R WCI  16
$$

 *****  OTHER AIRPORT OBSERVATIONS IN OUR AREA  *****

CITY           SKY/WX    TMP DP  RH WIND       PRES   REMARKS
WALHALLA       NOT AVBL
GRAFTON AIRPOR CLOUDY    25  21  86 N14       30.09S WCI  13
VALLEY CITY AR CLOUDY    27  27 100 NE7       30.04R WCI  19
CANDO          NOT AVBL
CAVALIER APRT    N/A     25  18  74 N12       30.09S WCI  14
GWINNER        CLOUDY    30  28  93 N10       30.01R WCI  21
SHEYENNE NWR     N/A     28  22  79 NE10      29.95S WCI  19
ROLLA          CLOUDY    19  18  93 N16       30.04S WCI   5
 ***** THE ABOVE OBSERVATIONS ARE NON NWS ARE NOT QUALITY
       CONTROLLED AND MAY MIS-REPORT RAIN FOR SNOW...
$$

  *****  WEATHER ACROSS NORTHERN MINNESOTA  *****

CITY           SKY/WX    TMP DP  RH WIND       PRES   REMARKS
FLAG ISLAND    CLOUDY    19  10  68 NW18      30.05R WCI   4
WARROAD        CLOUDY    21  12  68 NW9       30.06F WCI  11
ROSEAU         CLOUDY    23  16  74 N14       30.05F WCI  11
HALLOCK        CLOUDY    25  21  86 N15       30.07F WCI  12
THF RVR FALLS    N/A    N/A N/A N/A MISG        N/A
BAUDETTE       CLOUDY    20  11  68 N15       30.02S WCI   6
WASKISH        CLOUDY    21  14  73 N8        30.02F WCI  12
CROOKSTON      CLOUDY    28  23  80 N7        30.05F WCI  21
GREENBUSH NDAW   N/A     23  19  86 N10         N/A  WCI  12
$$
  *****  WEATHER ACROSS CENTRAL AND WEST MINNESOTA  *****

CITY           SKY/WX    TMP DP  RH WIND       PRES   REMARKS
FOSSTON        CLOUDY    25  19  80 N15       30.03R WCI  12
BEMIDJI        CLOUDY    23  16  74 N12G20    30.00S WCI  11
PARK RAPIDS    CLOUDY    25  16  68 N13       29.97S WCI  14
ELBOW LAKE     FAIR      27  21  80 NE13      29.98R WCI  16
WADENA         CLOUDY    21  19  93 N14       29.96R WCI   8
DETROIT LAKES  CLOUDY    27  21  80 N16G24    29.99F WCI  14
MOORHEAD       CLOUDY    28  21  74 N15       30.03S WCI  17
FERGUS FALLS   FAIR      27  19  74 NE12G17   30.02R WCI  16
MORRIS MN      FAIR      28  23  80 N21       29.95S WCI  15
STAPLES        CLOUDY    21  19  93 N15       29.96R WCI   8
$$
  *****  WEATHER ELSEWHERE ACROSS MINNESOTA  *****

CITY           SKY/WX    TMP DP  RH WIND       PRES   REMARKS
DULUTH         CLOUDY    25  21  85 NW13      29.91R WCI  14
INTRNTL FALLS  CLOUDY    22  12  65 NW16      29.99R WCI   8
ELY            CLOUDY    25  18  74 W10G17    29.92S WCI  15
CLOQUET        CLOUDY    25  19  80 NW12      29.93S WCI  14
WHEATON        FAIR      28  23  80 N17       30.01S WCI  16
BRAINERD       CLOUDY    23  19  85 N16       29.96R WCI  10
HIBBING        CLOUDY    22  19  89 NW17      29.94R WCI   8
ALEXANDRIA     PTSUNNY   27  23  85 N9        29.95R WCI  18
SAINT CLOUD    CLOUDY    27  23  85 N10       29.94R WCI  17
MINNEAPOLIS    CLOUDY    32  24  72 N13G22    29.93R WCI  22
$$

  *****  WEATHER ACROSS SOUTH DAKOTA  *****

CITY           SKY/WX    TMP DP  RH WIND       PRES   REMARKS
SIOUX FALLS    CLOUDY    32  27  81 NE12      29.89S WCI  23
BROOKINGS      NOT AVBL
WATERTOWN      FAIR      28  22  78 NE20      29.93R WCI  15
HURON          FAIR      29  26  89 N9        29.94F WCI  20
SISSETON         N/A     29  26  89 NE14      29.98S WCI  18
ABERDEEN       FAIR      28  23  81 NE12      29.99R WCI  18
MITCHELL       CLOUDY    31  27  85 N13       29.91F WCI  21
PIERRE         CLOUDY    28  23  81 NE12      29.95S WCI  18
MOBRIDGE       CLOUDY    30  24  78 N9        29.97R WCI  22
RAPID CITY     LGT SNOW  26  23  88 NE15      29.86S FOG     WCI  14
$$

  *****  SOME WEATHER IN NEARBY STATES *****

CITY           SKY/WX    TMP DP  RH WIND       PRES   REMARKS
GLASGOW MT     LGT SNOW  27  25  92 N5        30.03R FOG     WCI  22
GREAT FALLS MT MOCLDY    25  22  88 NE9       29.96R WCI  15
CHEYENNE WY    LGT SNOW  26  25  96 E16       29.56F FOG     WCI  14
SCOTTSBLUFF NE HVY SNOW  27  24  89 E18       29.71R VSB 1/4 WCI  14
OMAHA NE       CLOUDY    37  32  82 NE13      29.78F
DES MOINES IA  CLOUDY    41  36  82 NE15      29.82F
DAVENPORT IA   FAIR      43  39  86 N14       29.79R
CHICAGO IL     FAIR      51  41  68 NE12      29.77R
EAU CLAIRE WI  CLOUDY    35  31  85 N6        29.89R
LA CROSSE WI   CLOUDY    43  32  65 N8        29.88R
$$

  *****  SOME NATIONAL WEATHER *****

CITY           SKY/WX    TMP DP  RH WIND       PRES   REMARKS
LA GUARDIA NY  CLOUDY    52  47  83 SW6       29.90F FOG
RALEIGH NC     FAIR      66  54  65 S3        29.97S
ATLANTA GA     FAIR      61  58  90 E7        29.92S
NEW ORLEANS LA FAIR      67  61  81 E5        29.85R
OKLAHOMA CITY  PTSUNNY   58  47  66 S12       29.55F
ALBUQUERQUE NM FAIR      47  22  37 W7        29.69R
SALT LAKE CITY FLURRIES  30  25  81 SW7       29.72R WCI  23
LOS ANGELES CA FAIR      49  30  48 N9G20     30.08R
BOISE ID       CLOUDY    30  24  78 NW21G28   29.85R WCI  17
SEATTLE WA     CLOUDY    36  35  96 CALM      30.23R
$$

*** WEATHER ACROSS MANITOBA...SASKATCHEWAN AND ONTARIO ***
                ***ONTARIO***

CITY           SKY/WX    TMP DP  RH WIND       PRES   REMARKS
GERALDTON      LGT SNOW  21  16  79 N9        29.79R WCI  11
THUNDER BAY    CLOUDY    32  19  59 NW16G23   29.88R WCI  21
SIOUX LOOKOUT  FLURRIES  18   9  68 W9        29.91R WCI   6
TORONTO        CLOUDY    57  54  88 SW16G25   29.61R
BIG TROUT LK   FLURRIES   0  -6  78 N9        29.87S WCI -16
PICKLE LAKE    FLURRIES   3  -6  66 NW13G24   29.86S WCI -14
DRYDEN         FLURRIES  16   9  73 W15G22    29.94R WCI   1
KENORA         MOSUNNY   16   5  62 NW12G20   30.01R WCI   3
$$
                *** MANITOBA***

CITY           SKY/WX    TMP DP  RH WIND       PRES   REMARKS
BRANDON        FLURRIES  21  14  73 NW15      30.09R WCI   8
DAUPHIN        CLOUDY    19  16  86 E6        30.12R WCI  11
ISLAND LAKE    NOT AVBL
PILOT MOUND      N/A     19  16  86 NE9         N/A  WCI   9
THE PAS        PTCLDY     3  -4  72 N5        30.14R WCI  -6
THOMPSON       PTCLDY   -15 -20  76 N7        30.19R WCI -31
WINNIPEG       LGT SNOW  19  14  79 N9        30.12R WCI   9
LYNN LAKE      CLOUDY    -9 -15  77 NE7       30.17S WCI -24
GILLAM         MOSUNNY  -15 -20  76 NW8       30.17R WCI -32
$$
                ***SASKATCHEWAN***

CITY           SKY/WX    TMP DP  RH WIND       PRES   REMARKS
ESTEVAN        SNOW      21  19  93 N10       30.08S VSB 3/8 WCI  10
KINDERSLEY     PTCLDY    19  18  93 W3        30.08S
LLOYDMINSTER   FLURRIES  14  12  92 CALM      30.07S
PRINCE ALBERT  LGT SNOW  18  14  86 NW10      30.07R WCI   6
REGINA         PTCLDY    21  18  86 S6        30.09S WCI  14
YORKTON        MOCLDY    18  14  86 W6        30.08R WCI   9
N. BATTLEFORD  CLEAR     16  12  86 W5        30.12R WCI   9
LA RONGE       MOCLDY     0  -4  85 CALM      30.13R
SASKATOON      PTCLDY    19  14  79 NW6       30.11R WCI  11
SWIFT CURRENT  MOCLDY    16  12  86 W3        30.07R
$$
NOTE: THESE ARE AUTOMATED STATIONS WITH LIMITED QUALITY CONTROL
      "FAIR" INDICATES FEW OR NO CLOUDS BELOW 12,000 FEET WITH NO
      SIGNIFICANT WEATHER AND/OR OBSTRUCTIONS TO VISIBILITY.
      SKY/WX - SKY CONDITION AND SIGNIFICANT WEATHER.
      TMP - AIR TEMPERATURE.    DP   - DEWPOINT TEMPERATURE.
      RH  - RELATIVE HUMIDITY.  PRES - PRESSURE.
      HX  - HEAT INDEX.         WCI  - WIND CHILL INDEX.
$



USA.gov is the U.S. government's official web portal to all federal, state and local government web resources and services.